Location: Bishausen
(51.6334°N, 9.9631°E)
Time: 17:34:29
(UTC+00:00)

Cosmos 1300 - Pass Details

Date: 23 May 2024
Orbit: 465 x 467 km, 82.5° (Epoch: 23 June)

Event Time Altitude Azimuth Distance (km) Brightness Sun altitude
Rises 00:56:12 0° 335° (NNW) 2,521 6.8 -14.5°
Reaches altitude 10° 00:58:50 10° 314° (NW) 1,636 5.5 -14.4°
Maximum altitude 01:01:09 17° 274° (W) 1,273 4.5 -14.2°
Enters shadow 01:02:04 15° 255° (WSW) 1,333 4.4 -14.1°
